Content
SEND FEEDBACK

Daily
Averages
Monthly
Summary
United States of America

UPI, GUAM


Home > North America > United States > Guam
Elevation: 16 meters     Latitude: 13 34N     Longitude: 144 55E

WEATHER
 
SELECT A DAY
Number of Records: 214,100;   Date Range: 1/1/95 - 10/29/14
 
SHARE

PRINT THIS DATA

[ ← Previous Day ]
WEATHER ALMANAC - 16 JUNE, 2014
[ Next Day → ]
[ °F ]   °C
Weather ElementAverageHighLow
Temperature29.1 °C31.9 °C (2:54 pm)26.7 °C (2:54 am)
Dewpoint24.3 °C25.5 °C (2:54 pm)22.2 °C (11:54 am)
Humidity75.9 %87 % (2:54 am)57 % (11:54 am)
Barometer1009.5 hPa1010.8 hPa (9:54 pm)1008.1 hPa (3:54 pm)
Wind Speed5.3 km/h14.8 km/h (11:54 am)
Weather ElementAverage
Visibility16.1 km
Wind DirectionENE (57.8 °)

Weather ElementTotal
Precipitation---
Cooling Degree Days11 (Base 18.3)
Growing Degree Days19.3 (Base 10)
Averaged from 23 records on 16 June, 2014
WEATHER CONDITIONS BREAKOUT
WIND DIRECTION BREAKOUT
WEATHER BY HOUR - 16 JUNE, 2014
[ °F ]   °C
Local TimeTemperatureDewpointHumidityBarometerVisibilityWind DirectionWind SpeedGust SpeedPrecipitationEventsConditions
1:54 AM27.2 °C24.4 °C85 %1009.1 hPa16.1 kmCalmClear
2:54 AM26.7 °C24.4 °C87 %1008.8 hPa16.1 kmCalmClear
3:54 AM26.7 °C23.9 °C85 %1008.5 hPa16.1 kmESE (110°)5.6 km/hClear
4:54 AM26.7 °C23.9 °C85 %1008.8 hPa16.1 kmCalmClear
5:54 AM26.7 °C24.4 °C87 %1009.5 hPa16.1 kmEast (90°)5.6 km/hClear
6:54 AM27.8 °C25 °C85 %1009.8 hPa16.1 kmEast (90°)5.6 km/hClear
7:54 AM29.4 °C25 °C77 %1010.2 hPa16.1 kmSE (130°)7.4 km/hClear
8:54 AM30 °C25 °C74 %1010.5 hPa16.1 kmVariable9.3 km/hPartly Cloudy
9:54 AM30 °C23.9 °C70 %1010.5 hPa16.1 kmESE (120°)11.1 km/hPartly Cloudy
10:54 AM31.1 °C23.3 °C63 %1010.2 hPa16.1 kmVariable9.3 km/hPartly Cloudy
11:54 AM31.7 °C22.2 °C57 %1009.8 hPa16.1 kmSE (130°)14.8 km/hPartly Cloudy
12:54 PM31.7 °C23.3 °C61 %1009.5 hPa16.1 kmVariable11.1 km/hPartly Cloudy
1:54 PM31.7 °C23.9 °C63 %1008.8 hPa16.1 kmESE (110°)13 km/hPartly Cloudy
2:54 PM31.9 °C25.5 °C69 %1008.5 hPa16.1 kmSouth (170°)9.3 km/hPartly Cloudy
3:54 PM30.6 °C24.4 °C69 %1008.1 hPa16.1 kmCalmScattered Clouds
4:54 PM30 °C24.4 °C72 %1008.1 hPa16.1 kmESE (120°)9.3 km/hScattered Clouds
5:54 PM29.4 °C24.4 °C74 %1008.5 hPa16.1 kmSSE (150°)5.6 km/hPartly Cloudy
6:54 PM28.9 °C24.4 °C76 %1008.8 hPa16.1 kmESE (110°)5.6 km/hPartly Cloudy
7:54 PM28.9 °C24.4 °C76 %1009.5 hPa16.1 kmCalmPartly Cloudy
8:54 PM28.3 °C24.4 °C79 %1010.2 hPa16.1 kmCalmPartly Cloudy
9:54 PM28.3 °C24.4 °C79 %1010.8 hPa16.1 kmCalmPartly Cloudy
10:54 PM27.8 °C25 °C85 %1010.8 hPa16.1 kmCalmPartly Cloudy
11:54 PM26.7 °C24.4 °C87 %1010.8 hPa16.1 kmCalmPartly Cloudy
Hourly data recorded from PGUM, located 0 kilometers away from Upi, Guam







STORIES FROM OUR PARTNERS